date,time,SUV Intensity [MED/Hr],UV Index,Daily total [MED],Since Last [MED]
09/05/2022,00:07:52,-0.001,0.0,0.0,0.0
09/05/2022,00:08:51,0.001,0.0,0.0,0.0
09/05/2022,00:09:51,0.000,0.0,0.0,0.0
09/05/2022,00:10:51,0.000,0.0,0.0,0.0
09/05/2022,00:11:51,0.000,0.0,0.0,0.0
09/05/2022,00:12:51,0.000,0.0,0.0,0.0
09/05/2022,00:13:51,0.000,0.0,0.0,0.0
09/05/2022,00:14:51,0.001,0.0,0.0,0.0
09/05/2022,00:15:51,0.000,0.0,0.0,0.0
09/05/2022,00:16:51,-0.001,0.0,0.0,0.0
09/05/2022,00:17:51,0.000,0.0,0.0,0.0
09/05/2022,00:18:51,0.000,0.0,0.0,0.0
09/05/2022,00:19:58,0.001,0.0,0.0,0.0
09/05/2022,00:20:50,0.000,0.0,0.0,0.0
09/05/2022,00:21:51,0.001,0.0,0.0,0.0
09/05/2022,00:22:58,0.000,0.0,0.0,0.0
09/05/2022,00:23:58,0.000,0.0,0.0,0.0
09/05/2022,00:24:51,0.000,0.0,0.0,0.0
09/05/2022,00:25:52,0.000,0.0,0.0,0.0
09/05/2022,00:27:00,-0.001,0.0,0.0,0.0
09/05/2022,00:27:51,0.000,0.0,0.0,0.0
09/05/2022,00:28:51,0.000,0.0,0.0,0.0
09/05/2022,00:29:51,0.001,0.0,0.0,0.0
09/05/2022,00:30:51,0.000,0.0,0.0,0.0
09/05/2022,00:31:51,0.000,0.0,0.0,0.0
09/05/2022,00:32:51,0.001,0.0,0.0,0.0
09/05/2022,00:33:51,0.000,0.0,0.0,0.0
09/05/2022,00:34:51,-0.001,0.0,0.0,0.0
09/05/2022,00:35:52,0.000,0.0,0.0,0.0
09/05/2022,00:36:52,0.000,0.0,0.0,0.0
09/05/2022,00:37:50,0.001,0.0,0.0,0.0
09/05/2022,00:38:51,0.000,0.0,0.0,0.0
09/05/2022,00:39:51,0.000,0.0,0.0,0.0
09/05/2022,00:40:51,0.000,0.0,0.0,0.0
09/05/2022,00:41:51,0.001,0.0,0.0,0.0
09/05/2022,00:42:51,0.000,0.0,0.0,0.0
09/05/2022,00:43:51,0.001,0.0,0.0,0.0
09/05/2022,00:44:51,0.000,0.0,0.0,0.0
09/05/2022,00:45:51,0.001,0.0,0.0,0.0
09/05/2022,00:46:51,0.000,0.0,0.0,0.0
09/05/2022,00:47:51,0.001,0.0,0.0,0.0
09/05/2022,00:48:51,0.000,0.0,0.0,0.0
09/05/2022,00:49:51,0.000,0.0,0.0,0.0
09/05/2022,00:50:51,0.000,0.0,0.0,0.0
09/05/2022,00:51:51,0.000,0.0,0.0,0.0
09/05/2022,00:52:51,0.001,0.0,0.0,0.0
09/05/2022,00:53:51,0.001,0.0,0.0,0.0
09/05/2022,00:54:51,-0.001,0.0,0.0,0.0
09/05/2022,00:55:59,0.000,0.0,0.0,0.0
09/05/2022,00:57:52,0.000,0.0,0.0,0.0
09/05/2022,00:58:59,0.001,0.0,0.0,0.0
09/05/2022,01:00:52,0.000,0.0,0.0,0.0
09/05/2022,01:01:51,-0.000,0.0,0.0,0.0
09/05/2022,01:02:51,0.001,0.0,0.0,0.0
09/05/2022,01:03:51,0.000,0.0,0.0,0.0
09/05/2022,01:04:51,0.000,0.0,0.0,0.0
09/05/2022,01:05:51,-0.000,0.0,0.0,0.0
09/05/2022,01:06:51,0.000,0.0,0.0,0.0
09/05/2022,01:07:51,0.000,0.0,0.0,0.0
09/05/2022,01:08:59,0.000,0.0,0.0,0.0
09/05/2022,01:10:51,0.001,0.0,0.0,0.0
09/05/2022,01:11:51,0.000,0.0,0.0,0.0
09/05/2022,01:12:51,-0.001,0.0,0.0,0.0
09/05/2022,01:13:51,0.000,0.0,0.0,0.0
09/05/2022,01:14:51,0.000,0.0,0.0,0.0
09/05/2022,01:15:52,0.001,0.0,0.0,0.0
09/05/2022,01:16:51,-0.000,0.0,0.0,0.0
09/05/2022,01:17:51,0.000,0.0,0.0,0.0
09/05/2022,01:18:59,0.000,0.0,0.0,0.0
09/05/2022,01:20:51,0.000,0.0,0.0,0.0
09/05/2022,01:22:08,0.000,0.0,0.0,0.0
09/05/2022,01:23:52,0.000,0.0,0.0,0.0
09/05/2022,01:24:51,0.000,0.0,0.0,0.0
09/05/2022,01:25:51,0.000,0.0,0.0,0.0
09/05/2022,01:26:51,0.001,0.0,0.0,0.0
09/05/2022,01:27:51,0.001,0.0,0.0,0.0
09/05/2022,01:28:51,0.000,0.0,0.0,0.0
09/05/2022,01:29:53,-0.000,0.0,0.0,0.0
09/05/2022,01:30:51,0.001,0.0,0.0,0.0
09/05/2022,01:31:52,0.001,0.0,0.0,0.0
09/05/2022,01:32:51,0.001,0.0,0.0,0.0
09/05/2022,01:33:59,0.000,0.0,0.0,0.0
09/05/2022,01:34:52,0.001,0.0,0.0,0.0
09/05/2022,01:35:51,0.001,0.0,0.0,0.0
09/05/2022,01:36:52,0.001,0.0,0.0,0.0
09/05/2022,01:37:52,0.001,0.0,0.0,0.0
09/05/2022,01:38:51,0.001,0.0,0.0,0.0
09/05/2022,01:39:51,0.000,0.0,0.0,0.0
09/05/2022,01:40:51,-0.001,0.0,0.0,0.0
09/05/2022,01:41:51,-0.001,0.0,0.0,0.0
09/05/2022,01:42:51,0.001,0.0,0.0,0.0
09/05/2022,01:43:51,0.001,0.0,0.0,0.0
09/05/2022,01:44:51,0.001,0.0,0.0,0.0
09/05/2022,01:45:51,0.001,0.0,0.0,0.0
09/05/2022,01:47:06,0.001,0.0,0.0,0.0
09/05/2022,01:48:52,0.001,0.0,0.0,0.0
09/05/2022,01:49:59,0.001,0.0,0.0,0.0
09/05/2022,01:50:51,0.001,0.0,0.0,0.0
09/05/2022,01:51:52,0.001,0.0,0.0,0.0
09/05/2022,01:52:51,0.000,0.0,0.0,0.0
09/05/2022,01:53:51,0.000,0.0,0.0,0.0
09/05/2022,01:54:51,0.001,0.0,0.0,0.0
09/05/2022,01:55:51,0.000,0.0,0.0,0.0
09/05/2022,01:56:51,0.001,0.0,0.0,0.0
09/05/2022,01:57:51,0.001,0.0,0.0,0.0
09/05/2022,01:58:51,0.000,0.0,0.0,0.0
09/05/2022,01:59:59,0.001,0.0,0.0,0.0
09/05/2022,02:00:51,0.001,0.0,0.0,0.0
09/05/2022,02:01:51,0.001,0.0,0.0,0.0
09/05/2022,02:03:00,0.001,0.0,0.0,0.0
09/05/2022,02:04:42,-0.001,0.0,0.0,0.0
09/05/2022,02:05:53,0.000,0.0,0.0,0.0
09/05/2022,02:06:51,0.001,0.0,0.0,0.0
09/05/2022,02:07:52,0.001,0.0,0.0,0.0
09/05/2022,02:08:51,0.001,0.0,0.0,0.0
09/05/2022,02:09:51,0.001,0.0,0.0,0.0
09/05/2022,02:10:52,0.001,0.0,0.0,0.0
09/05/2022,02:11:51,0.001,0.0,0.0,0.0
09/05/2022,02:12:51,0.001,0.0,0.0,0.0
09/05/2022,02:13:51,0.001,0.0,0.0,0.0
09/05/2022,02:14:51,0.001,0.0,0.0,0.0
09/05/2022,02:16:00,0.000,0.0,0.0,0.0
09/05/2022,02:17:52,0.001,0.0,0.0,0.0
09/05/2022,02:18:51,0.001,0.0,0.0,0.0
09/05/2022,02:19:51,0.001,0.0,0.0,0.0
09/05/2022,02:20:53,0.001,0.0,0.0,0.0
09/05/2022,02:21:51,0.001,0.0,0.0,0.0
09/05/2022,02:22:53,0.001,0.0,0.0,0.0
09/05/2022,02:23:51,0.001,0.0,0.0,0.0
09/05/2022,02:24:51,0.001,0.0,0.0,0.0
09/05/2022,02:26:00,0.001,0.0,0.0,0.0
09/05/2022,02:27:52,0.001,0.0,0.0,0.0
09/05/2022,02:28:52,0.001,0.0,0.0,0.0
09/05/2022,02:29:52,0.001,0.0,0.0,0.0
09/05/2022,02:30:52,0.001,0.0,0.0,0.0
09/05/2022,02:31:51,0.001,0.0,0.0,0.0
09/05/2022,02:32:52,0.001,0.0,0.0,0.0
09/05/2022,02:33:53,0.001,0.0,0.0,0.0
09/05/2022,02:34:51,0.000,0.0,0.0,0.0
09/05/2022,02:35:51,0.001,0.0,0.0,0.0
09/05/2022,02:36:51,0.001,0.0,0.0,0.0
09/05/2022,02:37:51,0.000,0.0,0.0,0.0
09/05/2022,02:38:51,0.001,0.0,0.0,0.0
09/05/2022,02:39:51,0.001,0.0,0.0,0.0
09/05/2022,02:40:52,0.001,0.0,0.0,0.0
09/05/2022,02:41:51,0.001,0.0,0.0,0.0
09/05/2022,02:42:51,0.001,0.0,0.0,0.0
09/05/2022,02:43:51,0.001,0.0,0.0,0.0
09/05/2022,02:44:50,0.001,0.0,0.0,0.0
09/05/2022,02:45:51,0.001,0.0,0.0,0.0
09/05/2022,02:46:51,0.001,0.0,0.0,0.0
09/05/2022,02:47:52,0.001,0.0,0.0,0.0
09/05/2022,02:48:51,0.001,0.0,0.0,0.0
09/05/2022,02:49:52,0.001,0.0,0.0,0.0
09/05/2022,02:51:00,0.001,0.0,0.0,0.0
09/05/2022,02:52:52,0.001,0.0,0.0,0.0
09/05/2022,02:53:52,-0.000,0.0,0.0,0.0
09/05/2022,02:54:51,0.001,0.0,0.0,0.0
09/05/2022,02:55:51,0.001,0.0,0.0,0.0
09/05/2022,02:56:52,0.001,0.0,0.0,0.0
09/05/2022,02:58:00,0.001,0.0,0.0,0.0
09/05/2022,02:59:52,0.001,0.0,0.0,0.0
09/05/2022,03:00:51,0.001,0.0,0.0,0.0
09/05/2022,03:01:51,0.001,0.0,0.0,0.0
09/05/2022,03:02:52,0.001,0.0,0.0,0.0
09/05/2022,03:04:00,0.001,0.0,0.0,0.0
09/05/2022,03:04:51,0.001,0.0,0.0,0.0
09/05/2022,03:05:51,0.001,0.0,0.0,0.0
09/05/2022,03:07:00,0.001,0.0,0.0,0.0
09/05/2022,03:07:52,0.001,0.0,0.0,0.0
09/05/2022,03:08:52,0.001,0.0,0.0,0.0
09/05/2022,03:09:51,0.001,0.0,0.0,0.0
09/05/2022,03:10:51,0.001,0.0,0.0,0.0
09/05/2022,03:11:51,0.001,0.0,0.0,0.0
09/05/2022,03:12:51,0.000,0.0,0.0,0.0
09/05/2022,03:13:52,0.000,0.0,0.0,0.0
09/05/2022,03:14:51,0.001,0.0,0.0,0.0
09/05/2022,03:15:52,0.001,0.0,0.0,0.0
09/05/2022,03:16:59,0.001,0.0,0.0,0.0
09/05/2022,03:18:06,0.000,0.0,0.0,0.0
09/05/2022,03:19:53,0.001,0.0,0.0,0.0
09/05/2022,03:20:51,0.001,0.0,0.0,0.0
09/05/2022,03:21:51,0.001,0.0,0.0,0.0
09/05/2022,03:22:51,0.001,0.0,0.0,0.0
09/05/2022,03:23:51,0.001,0.0,0.0,0.0
09/05/2022,03:24:51,0.001,0.0,0.0,0.0
09/05/2022,03:25:51,0.001,0.0,0.0,0.0
09/05/2022,03:26:59,0.001,0.0,0.0,0.0
09/05/2022,03:28:52,0.002,0.0,0.0,0.0
09/05/2022,03:30:00,0.001,0.0,0.0,0.0
09/05/2022,03:31:52,0.001,0.0,0.0,0.0
09/05/2022,03:32:50,0.001,0.0,0.0,0.0
09/05/2022,03:33:52,0.001,0.0,0.0,0.0
09/05/2022,03:34:51,0.001,0.0,0.0,0.0
09/05/2022,03:35:51,0.001,0.0,0.0,0.0
09/05/2022,03:36:51,0.001,0.0,0.0,0.0
09/05/2022,03:37:51,0.001,0.0,0.0,0.0
09/05/2022,03:38:52,0.001,0.0,0.0,0.0
09/05/2022,03:39:51,0.001,0.0,0.0,0.0
09/05/2022,03:40:51,0.000,0.0,0.0,0.0
09/05/2022,03:41:51,0.001,0.0,0.0,0.0
09/05/2022,03:43:00,0.001,0.0,0.0,0.0
09/05/2022,03:44:52,0.001,0.0,0.0,0.0
09/05/2022,03:45:51,0.001,0.0,0.0,0.0
09/05/2022,03:46:51,0.000,0.0,0.0,0.0
09/05/2022,03:47:51,0.001,0.0,0.0,0.0
09/05/2022,03:48:51,0.001,0.0,0.0,0.0
09/05/2022,03:49:51,0.001,0.0,0.0,0.0
09/05/2022,03:50:51,0.001,0.0,0.0,0.0
09/05/2022,03:51:51,0.001,0.0,0.0,0.0
09/05/2022,03:53:00,0.001,0.0,0.0,0.0
09/05/2022,03:53:52,0.001,0.0,0.0,0.0
09/05/2022,03:54:52,0.001,0.0,0.0,0.0
09/05/2022,03:55:51,0.001,0.0,0.0,0.0
09/05/2022,03:56:51,0.001,0.0,0.0,0.0
09/05/2022,03:57:51,0.001,0.0,0.0,0.0
09/05/2022,03:58:52,0.001,0.0,0.0,0.0
09/05/2022,03:59:51,0.001,0.0,0.0,0.0
09/05/2022,04:00:51,0.001,0.0,0.0,0.0
09/05/2022,04:01:51,0.001,0.0,0.0,0.0
09/05/2022,04:02:59,0.001,0.0,0.0,0.0
09/05/2022,04:04:52,0.001,0.0,0.0,0.0
09/05/2022,04:05:51,0.001,0.0,0.0,0.0
09/05/2022,04:06:51,0.001,0.0,0.0,0.0
09/05/2022,04:07:51,0.002,0.0,0.0,0.0
09/05/2022,04:08:52,0.002,0.0,0.0,0.0
09/05/2022,04:09:51,0.002,0.0,0.0,0.0
09/05/2022,04:10:52,0.002,0.0,0.0,0.0
09/05/2022,04:11:53,0.003,0.0,0.0,0.0
09/05/2022,04:12:52,0.002,0.0,0.0,0.0
09/05/2022,04:13:52,0.002,0.0,0.0,0.0
09/05/2022,04:14:51,0.002,0.0,0.0,0.0
09/05/2022,04:15:52,0.001,0.0,0.0,0.0
09/05/2022,04:16:52,0.003,0.0,0.0,0.0
09/05/2022,04:17:52,0.002,0.0,0.0,0.0
09/05/2022,04:18:52,0.002,0.0,0.0,0.0
09/05/2022,04:19:52,0.002,0.0,0.0,0.0
09/05/2022,04:20:52,0.002,0.0,0.0,0.0
09/05/2022,04:21:52,0.003,0.0,0.0,0.0
09/05/2022,04:22:51,0.003,0.0,0.0,0.0
09/05/2022,04:23:51,0.003,0.0,0.0,0.0
09/05/2022,04:24:51,0.004,0.0,0.0,0.0
09/05/2022,04:25:51,0.003,0.0,0.0,0.0
09/05/2022,04:26:51,0.004,0.0,0.0,0.0
09/05/2022,04:27:52,0.002,0.0,0.0,0.0
09/05/2022,04:28:51,0.004,0.0,0.0,0.0
09/05/2022,04:29:51,0.004,0.0,0.0,0.0
09/05/2022,04:30:51,0.004,0.0,0.0,0.0
09/05/2022,04:31:51,0.005,0.0,0.0,0.0
09/05/2022,04:32:52,0.004,0.0,0.0,0.0
09/05/2022,04:33:52,0.004,0.0,0.0,0.0
09/05/2022,04:34:51,0.004,0.0,0.0,0.0
09/05/2022,04:35:51,0.005,0.0,0.0,0.0
09/05/2022,04:36:51,0.006,0.0,0.0,0.0
09/05/2022,04:37:51,0.005,0.0,0.0,0.0
09/05/2022,04:39:00,0.005,0.0,0.0,0.0
09/05/2022,04:39:52,0.006,0.0,0.0,0.0
09/05/2022,04:40:59,0.006,0.0,0.0,0.0
09/05/2022,04:41:51,0.006,0.0,0.0,0.0
09/05/2022,04:42:52,0.007,0.0,0.0,0.0
09/05/2022,04:43:52,0.007,0.0,0.0,0.0
09/05/2022,04:44:51,0.007,0.0,0.0,0.0
09/05/2022,04:45:51,0.008,0.0,0.0,0.0
09/05/2022,04:46:52,0.007,0.0,0.001,0.001
09/05/2022,04:47:52,0.008,0.0,0.001,0.0
09/05/2022,04:48:51,0.008,0.0,0.001,0.0
09/05/2022,04:49:52,0.008,0.0,0.001,0.0
09/05/2022,04:50:52,0.009,0.0,0.001,0.0
09/05/2022,04:51:51,0.009,0.0,0.001,0.0
09/05/2022,04:52:51,0.010,0.0,0.001,0.0
09/05/2022,04:53:51,0.010,0.0,0.002,0.001
09/05/2022,04:55:00,0.010,0.0,0.002,0.0
09/05/2022,04:55:52,0.009,0.0,0.002,0.0
09/05/2022,04:56:52,0.011,0.0,0.002,0.0
09/05/2022,04:57:51,0.012,0.0,0.002,0.0
09/05/2022,04:58:51,0.011,0.0,0.002,0.0
09/05/2022,04:59:51,0.012,0.0,0.003,0.001
09/05/2022,05:00:52,0.012,0.0,0.003,0.0
09/05/2022,05:01:52,0.014,0.0,0.003,0.0
09/05/2022,05:02:51,0.014,0.0,0.003,0.0
09/05/2022,05:03:52,0.014,0.0,0.004,0.001
09/05/2022,05:05:00,0.015,0.0,0.004,0.0
09/05/2022,05:06:52,0.015,0.0,0.004,0.0
09/05/2022,05:07:52,0.016,0.0,0.005,0.001
09/05/2022,05:08:51,0.017,0.0,0.005,0.0
09/05/2022,05:09:51,0.017,0.0,0.005,0.0
09/05/2022,05:10:51,0.018,0.0,0.005,0.0
09/05/2022,05:11:51,0.019,0.0,0.006,0.001
09/05/2022,05:12:51,0.018,0.0,0.006,0.0
09/05/2022,05:13:52,0.020,0.0,0.006,0.0
09/05/2022,05:14:52,0.020,0.0,0.007,0.001
09/05/2022,05:15:52,0.021,0.0,0.007,0.0
09/05/2022,05:16:51,0.022,0.0,0.007,0.0
09/05/2022,05:17:52,0.022,0.0,0.008,0.001
09/05/2022,05:18:52,0.023,0.0,0.008,0.0
09/05/2022,05:19:52,0.025,0.0,0.009,0.001
09/05/2022,05:20:52,0.025,0.0,0.009,0.0
09/05/2022,05:21:52,0.025,0.0,0.009,0.0
09/05/2022,05:22:52,0.026,0.0,0.01,0.001
09/05/2022,05:23:52,0.026,0.0,0.01,0.0
09/05/2022,05:24:52,0.028,0.0,0.011,0.001
09/05/2022,05:25:51,0.029,0.0,0.011,0.0
09/05/2022,05:26:51,0.030,0.0,0.012,0.001
09/05/2022,05:27:52,0.031,0.0,0.012,0.0
09/05/2022,05:28:52,0.032,0.0,0.013,0.001
09/05/2022,05:29:52,0.032,0.0,0.013,0.0
09/05/2022,05:30:51,0.033,0.0,0.014,0.001
09/05/2022,05:31:52,0.034,0.0,0.014,0.0
09/05/2022,05:32:51,0.035,0.0,0.015,0.001
09/05/2022,05:33:52,0.036,0.0,0.016,0.001
09/05/2022,05:34:52,0.037,0.0,0.016,0.0
09/05/2022,05:35:51,0.038,0.0,0.017,0.001
09/05/2022,05:36:52,0.039,0.0,0.017,0.0
09/05/2022,05:37:52,0.039,0.0,0.018,0.001
09/05/2022,05:38:52,0.041,0.0,0.019,0.001
09/05/2022,05:39:52,0.043,0.0,0.019,0.0
09/05/2022,05:40:52,0.043,0.0,0.02,0.001
09/05/2022,05:41:51,0.044,0.0,0.021,0.001
09/05/2022,05:42:51,0.047,0.0,0.022,0.001
09/05/2022,05:43:52,0.046,0.0,0.022,0.0
09/05/2022,05:44:52,0.048,0.0,0.023,0.001
09/05/2022,05:45:52,0.050,0.0,0.024,0.001
09/05/2022,05:46:52,0.051,0.0,0.025,0.001
09/05/2022,05:47:52,0.053,0.0,0.026,0.001
09/05/2022,05:48:53,0.054,0.0,0.027,0.001
09/05/2022,05:49:51,0.055,0.0,0.028,0.001
09/05/2022,05:51:00,0.056,0.0,0.029,0.001
09/05/2022,05:51:52,0.058,0.0,0.029,0.0
09/05/2022,05:52:51,0.059,0.0,0.03,0.001
09/05/2022,05:53:52,0.061,0.0,0.031,0.001
09/05/2022,05:54:52,0.062,0.0,0.032,0.001
09/05/2022,05:55:52,0.063,0.0,0.033,0.001
09/05/2022,05:56:51,0.065,0.0,0.035,0.002
09/05/2022,05:57:52,0.066,0.0,0.036,0.001
09/05/2022,05:58:52,0.069,0.0,0.037,0.001
09/05/2022,06:00:00,0.071,0.0,0.038,0.001
09/05/2022,06:00:51,0.072,0.0,0.039,0.001
09/05/2022,06:01:51,0.073,0.0,0.04,0.001
09/05/2022,06:02:51,0.075,0.0,0.042,0.002
09/05/2022,06:03:52,0.078,0.0,0.043,0.001
09/05/2022,06:04:52,0.079,0.0,0.044,0.001
09/05/2022,06:05:51,0.081,0.0,0.046,0.002
09/05/2022,06:07:00,0.083,0.0,0.047,0.001
09/05/2022,06:07:51,0.085,0.0,0.048,0.001
09/05/2022,06:08:52,0.087,0.0,0.05,0.002
09/05/2022,06:10:00,0.089,0.0,0.051,0.001
09/05/2022,06:11:52,0.092,0.0,0.054,0.003
09/05/2022,06:12:52,0.095,0.0,0.056,0.002
09/05/2022,06:13:52,0.098,0.0,0.057,0.001
09/05/2022,06:14:52,0.099,0.0,0.059,0.002
09/05/2022,06:15:52,0.101,0.0,0.061,0.002
09/05/2022,06:17:00,0.104,0.0,0.063,0.002
09/05/2022,06:18:52,0.107,0.0,0.066,0.003
09/05/2022,06:20:00,0.111,0.0,0.068,0.002
09/05/2022,06:21:52,0.115,0.0,0.071,0.003
09/05/2022,06:23:00,0.118,0.0,0.074,0.003
09/05/2022,06:24:52,0.122,0.0,0.077,0.003
09/05/2022,06:25:51,0.125,0.0,0.079,0.002
09/05/2022,06:26:52,0.128,0.0,0.082,0.003
09/05/2022,06:27:51,0.130,0.0,0.084,0.002
09/05/2022,06:28:51,0.133,0.0,0.086,0.002
09/05/2022,06:30:00,0.136,0.0,0.088,0.002
09/05/2022,06:31:53,0.141,0.0,0.093,0.005
09/05/2022,06:32:51,0.145,0.0,0.095,0.002
09/05/2022,06:33:52,0.148,0.0,0.098,0.003
09/05/2022,06:34:52,0.151,0.0,0.1,0.002
09/05/2022,06:35:52,0.154,0.0,0.103,0.003
09/05/2022,06:36:52,0.158,0.0,0.105,0.002
09/05/2022,06:37:52,0.161,0.0,0.108,0.003
09/05/2022,06:38:52,0.164,0.0,0.111,0.003
09/05/2022,06:40:00,0.167,0.0,0.114,0.003
09/05/2022,06:41:52,0.172,0.0,0.119,0.005
09/05/2022,06:42:52,0.175,0.0,0.122,0.003
09/05/2022,06:43:52,0.178,0.0,0.125,0.003
09/05/2022,06:44:51,0.183,0.0,0.128,0.003
09/05/2022,06:45:51,0.187,0.0,0.131,0.003
09/05/2022,06:46:52,0.192,0.0,0.134,0.003
09/05/2022,06:47:52,0.195,0.0,0.137,0.003
09/05/2022,06:48:51,0.198,0.0,0.141,0.004
09/05/2022,06:50:00,0.203,0.0,0.144,0.003
09/05/2022,06:50:52,0.207,0.0,0.147,0.003
09/05/2022,06:51:52,0.211,0.0,0.151,0.004
09/05/2022,06:53:00,0.215,0.0,0.155,0.004
09/05/2022,06:54:52,0.223,1.0,0.162,0.007
09/05/2022,06:55:59,0.226,1.0,0.166,0.004
09/05/2022,06:57:52,0.234,1.0,0.173,0.007
09/05/2022,06:58:52,0.238,1.0,0.177,0.004
09/05/2022,06:59:51,0.239,1.0,0.181,0.004
09/05/2022,07:00:52,0.244,1.0,0.185,0.004
09/05/2022,07:01:52,0.248,1.0,0.189,0.004
09/05/2022,07:02:51,0.253,1.0,0.193,0.004
09/05/2022,07:03:52,0.256,1.0,0.198,0.005
09/05/2022,07:04:52,0.260,1.0,0.202,0.004
09/05/2022,07:06:01,0.266,1.0,0.207,0.005
09/05/2022,07:07:52,0.273,1.0,0.215,0.008
09/05/2022,07:08:52,0.280,1.0,0.22,0.005
09/05/2022,07:09:52,0.283,1.0,0.224,0.004
09/05/2022,07:10:52,0.289,1.0,0.229,0.005
09/05/2022,07:11:52,0.296,1.0,0.234,0.005
09/05/2022,07:13:05,0.301,1.0,0.24,0.006
09/05/2022,07:14:53,0.312,1.0,0.249,0.009
09/05/2022,07:16:00,0.319,1.0,0.255,0.006
09/05/2022,07:17:53,0.332,1.0,0.265,0.01
09/05/2022,07:18:51,0.339,1.0,0.271,0.006
09/05/2022,07:19:52,0.348,1.0,0.277,0.006
09/05/2022,07:20:52,0.353,1.0,0.283,0.006
09/05/2022,07:21:52,0.360,1.0,0.288,0.005
09/05/2022,07:22:52,0.369,1.0,0.295,0.007
09/05/2022,07:23:52,0.375,1.0,0.301,0.006
09/05/2022,07:24:52,0.383,1.0,0.307,0.006
09/05/2022,07:26:08,0.391,1.0,0.315,0.008
09/05/2022,07:27:52,0.403,1.0,0.327,0.012
09/05/2022,07:28:51,0.405,1.0,0.333,0.006
09/05/2022,07:29:52,0.413,1.0,0.34,0.007
09/05/2022,07:30:51,0.416,1.0,0.347,0.007
09/05/2022,07:32:01,0.426,1.0,0.355,0.008
09/05/2022,07:33:53,0.432,1.0,0.368,0.013
09/05/2022,07:34:52,0.435,1.0,0.376,0.008
09/05/2022,07:35:53,0.441,1.0,0.383,0.007
09/05/2022,07:36:52,0.443,1.0,0.39,0.007
09/05/2022,07:38:12,0.450,1.0,0.4,0.01
09/05/2022,07:40:01,0.459,1.0,0.414,0.014
09/05/2022,07:41:52,0.468,1.0,0.428,0.014
09/05/2022,07:42:52,0.474,1.0,0.436,0.008
09/05/2022,07:43:51,0.481,1.0,0.444,0.008
09/05/2022,07:44:51,0.488,1.0,0.452,0.008
09/05/2022,07:45:52,0.491,1.0,0.46,0.008
09/05/2022,07:46:52,0.498,1.0,0.469,0.009
09/05/2022,07:47:52,0.505,1.0,0.477,0.008
09/05/2022,07:49:04,0.514,1.0,0.487,0.01
09/05/2022,07:50:52,0.530,1.0,0.503,0.016
09/05/2022,07:51:52,0.538,1.0,0.512,0.009
09/05/2022,07:52:52,0.540,1.0,0.521,0.009
09/05/2022,07:53:52,0.553,1.0,0.53,0.009
09/05/2022,07:55:00,0.558,1.0,0.54,0.01
09/05/2022,07:55:52,0.565,1.0,0.549,0.009
09/05/2022,07:56:52,0.570,1.0,0.558,0.009
09/05/2022,07:57:52,0.572,1.0,0.567,0.009
09/05/2022,07:58:52,0.575,1.0,0.577,0.01
09/05/2022,07:59:52,0.591,1.0,0.587,0.01
09/05/2022,08:00:52,0.602,1.0,0.597,0.01
09/05/2022,08:02:00,0.608,1.0,0.608,0.011
09/05/2022,08:03:53,0.621,1.0,0.627,0.019
09/05/2022,08:04:53,0.625,1.0,0.638,0.011
09/05/2022,08:05:52,0.632,1.0,0.648,0.01
09/05/2022,08:06:52,0.640,1.0,0.659,0.011
09/05/2022,08:07:52,0.650,1.0,0.669,0.01
09/05/2022,08:08:51,0.662,2.0,0.68,0.011
09/05/2022,08:09:53,0.674,2.0,0.691,0.011
09/05/2022,08:10:52,0.678,2.0,0.703,0.012
09/05/2022,08:11:52,0.686,2.0,0.714,0.011
09/05/2022,08:12:52,0.696,2.0,0.726,0.012
09/05/2022,08:13:52,0.701,2.0,0.737,0.011
09/05/2022,08:14:51,0.702,2.0,0.749,0.012
09/05/2022,08:15:52,0.704,2.0,0.761,0.012
09/05/2022,08:16:52,0.707,2.0,0.772,0.011
09/05/2022,08:17:51,0.714,2.0,0.784,0.012
09/05/2022,08:18:52,0.720,2.0,0.796,0.012
09/05/2022,08:19:54,0.725,2.0,0.809,0.013
09/05/2022,08:21:00,0.728,2.0,0.822,0.013
09/05/2022,08:22:52,0.716,2.0,0.844,0.022
09/05/2022,08:23:51,0.728,2.0,0.856,0.012
09/05/2022,08:24:52,0.741,2.0,0.869,0.013
09/05/2022,08:25:52,0.718,2.0,0.881,0.012
09/05/2022,08:26:52,0.756,2.0,0.893,0.012
09/05/2022,08:27:52,0.767,2.0,0.906,0.013
09/05/2022,08:28:52,0.768,2.0,0.919,0.013
09/05/2022,08:29:52,0.775,2.0,0.932,0.013
09/05/2022,08:30:52,0.787,2.0,0.945,0.013
09/05/2022,08:31:52,0.795,2.0,0.958,0.013
09/05/2022,08:32:52,0.787,2.0,0.971,0.013
09/05/2022,08:33:51,0.810,2.0,0.984,0.013
09/05/2022,08:35:00,0.813,2.0,1.0,0.016
09/05/2022,08:36:52,0.795,2.0,1.025,0.025
09/05/2022,08:37:52,0.815,2.0,1.038,0.013
09/05/2022,08:38:53,0.820,2.0,1.052,0.014
09/05/2022,08:39:52,0.859,2.0,1.066,0.014
09/05/2022,08:40:52,0.882,2.0,1.081,0.015
09/05/2022,08:41:52,0.905,2.0,1.096,0.015
09/05/2022,08:42:52,0.899,2.0,1.111,0.015
09/05/2022,08:43:52,0.918,2.0,1.126,0.015
09/05/2022,08:44:52,0.915,2.0,1.141,0.015
09/05/2022,08:45:52,0.919,2.0,1.156,0.015
09/05/2022,08:46:52,0.926,2.0,1.172,0.016
09/05/2022,08:47:52,0.919,2.0,1.187,0.015
09/05/2022,08:48:52,0.921,2.0,1.202,0.015
09/05/2022,08:49:52,0.929,2.0,1.218,0.016
09/05/2022,08:50:52,0.916,2.0,1.233,0.015
09/05/2022,08:51:52,0.901,2.0,1.248,0.015
09/05/2022,08:52:52,0.896,2.0,1.263,0.015
09/05/2022,08:53:52,0.893,2.0,1.278,0.015
09/05/2022,08:54:53,0.903,2.0,1.293,0.015
09/05/2022,08:55:52,0.877,2.0,1.308,0.015
09/05/2022,08:56:52,0.891,2.0,1.323,0.015
09/05/2022,08:57:52,0.887,2.0,1.337,0.014
09/05/2022,08:58:52,0.855,2.0,1.352,0.015
09/05/2022,09:00:00,0.818,2.0,1.368,0.016
09/05/2022,09:01:52,0.930,2.0,1.395,0.027
09/05/2022,09:02:51,0.942,2.0,1.41,0.015
09/05/2022,09:03:52,0.951,2.0,1.426,0.016
09/05/2022,09:04:52,0.997,2.0,1.442,0.016
09/05/2022,09:05:52,1.019,2.0,1.459,0.017
09/05/2022,09:06:52,1.009,2.0,1.476,0.017
09/05/2022,09:07:52,1.009,2.0,1.493,0.017
09/05/2022,09:08:52,1.040,2.0,1.51,0.017
09/05/2022,09:09:52,0.997,2.0,1.527,0.017
09/05/2022,09:10:52,0.972,2.0,1.543,0.016
09/05/2022,09:11:52,0.964,2.0,1.559,0.016
09/05/2022,09:12:52,0.961,2.0,1.575,0.016
09/05/2022,09:14:00,0.927,2.0,1.593,0.018
09/05/2022,09:15:53,0.923,2.0,1.622,0.029
09/05/2022,09:16:52,0.902,2.0,1.637,0.015
09/05/2022,09:17:51,0.895,2.0,1.652,0.015
09/05/2022,09:18:52,0.863,2.0,1.667,0.015
09/05/2022,09:19:52,0.899,2.0,1.682,0.015
09/05/2022,09:20:52,0.882,2.0,1.696,0.014
09/05/2022,09:21:52,0.881,2.0,1.711,0.015
09/05/2022,09:22:52,0.891,2.0,1.726,0.015
09/05/2022,09:23:52,0.901,2.0,1.741,0.015
09/05/2022,09:24:52,0.934,2.0,1.756,0.015
09/05/2022,09:25:52,0.969,2.0,1.772,0.016
09/05/2022,09:26:52,0.990,2.0,1.788,0.016
09/05/2022,09:27:52,1.005,2.0,1.805,0.017
09/05/2022,09:28:52,1.018,2.0,1.822,0.017
09/05/2022,09:29:52,1.019,2.0,1.839,0.017
09/05/2022,09:30:52,1.076,2.0,1.856,0.017
09/05/2022,09:31:52,1.177,3.0,1.874,0.018
09/05/2022,09:32:52,1.192,3.0,1.894,0.02
09/05/2022,09:33:52,1.148,3.0,1.914,0.02
09/05/2022,09:34:51,1.145,3.0,1.933,0.019
09/05/2022,09:35:51,1.093,3.0,1.951,0.018
09/05/2022,09:37:00,1.139,3.0,1.972,0.021
09/05/2022,09:38:53,1.160,3.0,2.007,0.035
09/05/2022,09:40:01,1.166,3.0,2.029,0.022
09/05/2022,09:40:52,1.134,3.0,2.046,0.017
09/05/2022,09:41:53,1.083,2.0,2.065,0.019
09/05/2022,09:42:52,1.100,3.0,2.083,0.018
09/05/2022,09:43:51,1.135,3.0,2.102,0.019
09/05/2022,09:44:52,1.137,3.0,2.12,0.018
09/05/2022,09:45:52,1.136,3.0,2.139,0.019
09/05/2022,09:47:00,1.160,3.0,2.161,0.022
09/05/2022,09:48:53,1.178,3.0,2.198,0.037
09/05/2022,09:49:52,1.190,3.0,2.217,0.019
09/05/2022,09:50:52,1.234,3.0,2.238,0.021
09/05/2022,09:51:51,1.385,3.0,2.259,0.021
09/05/2022,09:53:01,1.452,3.0,2.287,0.028
09/05/2022,09:54:53,1.456,3.0,2.332,0.045
09/05/2022,09:55:52,1.460,3.0,2.356,0.024
09/05/2022,09:56:52,1.477,3.0,2.38,0.024
09/05/2022,09:57:52,1.492,3.0,2.405,0.025
09/05/2022,09:58:52,1.483,3.0,2.429,0.024
09/05/2022,09:59:52,1.461,3.0,2.454,0.025
09/05/2022,10:00:52,1.448,3.0,2.478,0.024
09/05/2022,10:01:52,1.424,3.0,2.502,0.024
09/05/2022,10:03:02,1.386,3.0,2.529,0.027
09/05/2022,10:04:53,1.357,3.0,2.571,0.042
09/05/2022,10:05:52,1.334,3.0,2.594,0.023
09/05/2022,10:06:52,1.303,3.0,2.616,0.022
09/05/2022,10:07:52,1.377,3.0,2.638,0.022
09/05/2022,10:08:52,1.393,3.0,2.661,0.023
09/05/2022,10:09:52,1.464,3.0,2.685,0.024
09/05/2022,10:10:52,1.471,3.0,2.709,0.024
09/05/2022,10:11:54,1.410,3.0,2.734,0.025
09/05/2022,10:12:52,1.308,3.0,2.756,0.022
09/05/2022,10:13:52,1.295,3.0,2.778,0.022
09/05/2022,10:15:00,1.427,3.0,2.805,0.027
09/05/2022,10:17:01,1.611,4.0,2.857,0.052
09/05/2022,10:18:53,1.586,4.0,2.905,0.048
09/05/2022,10:19:52,1.556,4.0,2.931,0.026
09/05/2022,10:20:52,1.548,4.0,2.957,0.026
09/05/2022,10:21:52,1.695,4.0,2.985,0.028
09/05/2022,10:22:52,1.717,4.0,3.013,0.028
09/05/2022,10:23:52,1.697,4.0,3.042,0.029
09/05/2022,10:24:52,1.663,4.0,3.07,0.028
09/05/2022,10:25:52,1.640,4.0,3.098,0.028
09/05/2022,10:26:52,1.583,4.0,3.125,0.027
09/05/2022,10:27:52,1.575,4.0,3.151,0.026
09/05/2022,10:29:02,1.548,4.0,3.181,0.03
09/05/2022,10:30:53,1.412,3.0,3.227,0.046
09/05/2022,10:31:52,1.504,3.0,3.252,0.025
09/05/2022,10:32:52,1.483,3.0,3.277,0.025
09/05/2022,10:33:52,1.508,3.0,3.302,0.025
09/05/2022,10:34:52,1.473,3.0,3.327,0.025
09/05/2022,10:35:52,1.258,3.0,3.35,0.023
09/05/2022,10:36:52,1.276,3.0,3.371,0.021
09/05/2022,10:37:52,1.324,3.0,3.393,0.022
09/05/2022,10:38:52,1.367,3.0,3.416,0.023
09/05/2022,10:39:52,1.238,3.0,3.437,0.021
09/05/2022,10:40:52,1.411,3.0,3.459,0.022
09/05/2022,10:42:00,1.446,3.0,3.486,0.027
09/05/2022,10:43:54,1.476,3.0,3.534,0.048
09/05/2022,10:45:00,1.376,3.0,3.561,0.027
09/05/2022,10:46:53,1.333,3.0,3.603,0.042
09/05/2022,10:47:52,1.285,3.0,3.624,0.021
09/05/2022,10:48:52,1.249,3.0,3.645,0.021
09/05/2022,10:49:52,1.171,3.0,3.666,0.021